Overview Statistics Trail Chart Weather Telemetry Raw packets
 

This is the latest recevied weather packets stored in our database for station/object N8TWM-13. If no packets are shown the sender has not sent any weather packets the latest 10 day(s).

<< 7 8 9 10 11 12 13 >>
Time Temp. Humidity Pressure Rain* Wind** Luminosity Snow
1788558284 27.78° C 71% 1014.8 hPa 0 mm - 80 W/m² -
1788557979 27.78° C 71% 1014.6 hPa 0 mm - 127 W/m² -
1788557673 27.78° C 69% 1014.3 hPa 0 mm - 133 W/m² -
1788557369 27.78° C 71% 1014.4 hPa 0 mm - 141 W/m² -
1788557068 27.78° C 71% 1014.4 hPa 0 mm - 150 W/m² -
1788556764 27.78° C 72% 1014.5 hPa 0 mm - 157 W/m² -
1788556459 27.22° C 73% 1014.4 hPa 0 mm - 175 W/m² -
1788556154 27.78° C 72% 1014.4 hPa 0 mm - 185 W/m² -
1788555853 27.78° C 73% 1013.7 hPa 0 mm - 195 W/m² -
1788555549 27.78° C 72% 1014 hPa 0 mm - 178 W/m² -
1788555244 27.78° C 73% 1014.1 hPa 0 mm - 225 W/m² -
1788554942 27.78° C 72% 1014.1 hPa 0 mm - 170 W/m² -
1788554637 28.33° C 71% 1013.6 hPa 0 mm - 178 W/m² -
1788554333 28.89° C 69% 1013.8 hPa 0 mm - 206 W/m² -
1788554029 29.44° C 68% 1013.6 hPa 0 mm - 377 W/m² -
1788553725 29.44° C 66% 1014.1 hPa 0 mm - 403 W/m² -
1788553421 29.44° C 66% 1014.5 hPa 0 mm - 393 W/m² -
1788553116 29.44° C 65% 1014.7 hPa 0 mm - 462 W/m² -
1788552816 28.89° C 67% 1014.9 hPa 0 mm - 498 W/m² -
1788552512 28.89° C 70% 1015 hPa 0 mm - 340 W/m² -
1788552210 29.44° C 67% 1015.4 hPa 0 mm - 302 W/m² -
1788551905 28.89° C 67% 1015.1 hPa 0 mm - 293 W/m² -
1788551603 28.33° C 67% 1015.6 hPa 0 mm - 348 W/m² -
1788551324 28.89° C 69% 1015.5 hPa 0 mm - 467 W/m² -
1788550998 28.89° C 68% 1015.5 hPa 0 mm - 434 W/m² -

* Rain latest hour (hover to see other rain measurements)
** Current wind speed in m/s (hover to see current wind gust speed)